Regional Weather Roundup
Issued by NWS Green Bay, WI

Home | Current Version | Previous Version | Text Only | Print | Product List | Glossary On
Versions: 1 2 3 4 5 6 7 8 9 10 11 12 13 14 15 16 17 18 19 20 21 22 23 24 25 26 27 28 29 30 31 32 33 34 35 36 37 38 39 40 41 42 43 44 45 46 47 48 49 50
000
ASUS43 KGRB 290710
RWRGRB

NORTH-CENTRAL AND NORTHEAST WISCONSIN REGIONAL WEATHER ROUNDUP
NATIONAL WEATHER SERVICE GREEN BAY WI
200 AM CDT TUE JUL 29 2014

WIZ005-009-010>012-018-019-290800-
NORTH CENTRAL WISCONSIN

CITY           SKY/WX    TMP DP  RH WIND       PRES   REMARKS
IRONWOOD       NOT AVBL
MANITOWISH WTR MOCLDY    54  54 100 CALM      30.05F
ARBOR VITAE    PTCLDY    57  54  89 W5        30.05F
EAGLE RIVER    PTCLDY    53  53 100 W3        30.04F
LAND O LAKES   PTCLDY    55  53  94 W3        30.05S
RHINELANDER      N/A     55  54  96 W6        30.06F
PHILLIPS       PTCLDY    56  55  96 CALM      30.07F
ANTIGO         CLEAR     55  54  95 NW8       30.04F
TOMAHAWK       CLEAR     52  51  95 W3        30.07F
MERRILL        PTCLDY    55  54  97 NW5       30.06F
$$

WIZ013-073-290800-
NORTHEAST WISCONSIN

CITY           SKY/WX    TMP DP  RH WIND       PRES   REMARKS
IRON MOUNTAIN  PTCLDY    56  52  86 NW3       29.99S
MARINETTE      CLEAR     59  54  82 CALM      29.98S
OCONTO         CLEAR     59  55  86 W5        29.99F
$$

WIZ017-030-035>037-045-290800-
CENTRAL WISCONSIN

CITY           SKY/WX    TMP DP  RH WIND       PRES   REMARKS
MEDFORD        CLEAR     53  53  99 W3        30.07F
WAUSAU         PTCLDY    59  54  83 NW9       30.03F
MOSINEE        PTCLDY    55  55 100 NW7       30.06F
MARSHFIELD     MOCLDY    59  53  80 NW7       30.06F
WISC RAPIDS    MOCLDY    59  54  83 W5        30.07F
STEVENS POINT  PTCLDY    58  55  88 CALM      30.05F
WAUPACA        PTCLDY    64  54  69 NW6       30.03F
SHAWANO        CLEAR     62  55  77 W7        30.01F
CLINTONVILLE   CLEAR     59  54  82 NW6       30.02F
$$

WIZ038-039-048-051-290800-
FOX VALLEY

CITY           SKY/WX    TMP DP  RH WIND       PRES   REMARKS
NWS GREEN BAY  MOCLDY    60  55  83 W7        30.01S
APPLETON       PTCLDY    55  52  88 W8        30.02F
OSHKOSH        PTCLDY    62  55  77 W5        30.02F
FOND DU LAC    CLOUDY    63  54  72 SW5       30.03F
$$

WIZ022-050-052-290800-
EAST CENTRAL WISCONSIN

CITY           SKY/WX    TMP DP  RH WIND       PRES   REMARKS
STURGEON BAY   CLEAR     63  54  72 NW7       29.99F
MANITOWOC      MOCLDY    62  55  77 NW7       30.00F
SHEBOYGAN      CLOUDY    57  55  93 W6        30.01F
$$

LMZ563-521-522-541>543-290800-
LAKESHORE

STATION/POSITION TIME  TEMP    WIND        PRES    VSBY  WAVE
                       AIR SEA DIR/SP/G                  HT/PER
                 (UTC) (F)     (DEG/KT/KT) (MB)    (MI)  (FT/S)
SHEBOYGAN LKSHOR 0700   63     270/  9/ 11 1016.1F
KEWAUNEE LKSHORE 0700   61     300/  4/  6 1016.2F
ALGOMA MARINA    0600             CALM       N/A
NORTHPORT PIER   0700   63     300/  7/ 12 1014.9S
N MID LAKE BUOY  0700   58 54  300/  6/  8 1014.0F         1
S GREEN BAY BUOY 0600   65 66  310/ 10     1016.6F
SISTER BAY LKSHO 0700   64     350/ 12/ 13   N/A
CHAMBERS ISLAND  0700   62     260/  2/  6 1015.2F
MENOMINEE LKSHOR 0700   63     290/  7/ 11 1015.9F
$$


USA.gov is the U.S. government's official web portal to all federal, state and local government web resources and services.